TimePST,TemperatureF,Dew PointF,Humidity,Sea Level PressureIn,VisibilityMPH,Wind Direction,Wind SpeedMPH,Gust SpeedMPH,PrecipitationIn,Events,Conditions,WindDirDegrees,DateUTC
12:53 AM,59.0,-9999,N/A,29.83,10.0,SSE,20.7,29.9,0.01,Rain,Light Rain,160,2012-11-30 08:53:00
1:53 AM,59.0,-9999,N/A,29.82,7.0,SSE,24.2,33.4,0.04,Rain,Light Rain,160,2012-11-30 09:53:00
2:53 AM,59.0,-9999,N/A,29.79,6.0,SSE,28.8,36.8,0.09,Rain,Rain,160,2012-11-30 10:53:00
3:53 AM,59.0,-9999,N/A,29.76,7.0,SSE,25.3,35.7,0.22,Rain,Rain,150,2012-11-30 11:53:00
4:44 AM,59.0,-9999,N/A,29.77,2.5,South,18.4,35.7,0.22,Rain,Rain,170,2012-11-30 12:44:00
4:47 AM,59.0,-9999,N/A,29.77,3.0,South,18.4,35.7,0.22,Rain,Light Rain,170,2012-11-30 12:47:00
4:53 AM,59.0,-9999,N/A,29.78,4.0,South,20.7,31.1,0.24,Rain,Rain,180,2012-11-30 12:53:00
5:02 AM,59.0,-9999,N/A,29.79,2.5,SSW,19.6,29.9,0.06,Rain,Heavy Rain,200,2012-11-30 13:02:00
5:11 AM,59.0,-9999,N/A,29.81,1.8,SSW,13.8,23.0,0.15,Rain,Heavy Rain,210,2012-11-30 13:11:00
5:26 AM,59.0,-9999,N/A,29.80,2.0,South,13.8,-,0.31,Rain,Heavy Rain,170,2012-11-30 13:26:00
5:29 AM,59.0,-9999,N/A,29.79,3.0,SSE,15.0,-,0.32,Rain,Rain,160,2012-11-30 13:29:00
5:36 AM,59.0,-9999,N/A,29.77,4.0,SSE,16.1,-,0.35,Rain,Rain,160,2012-11-30 13:36:00
5:53 AM,59.0,-9999,N/A,29.79,10.0,South,12.7,-,0.37,Rain,Light Rain,170,2012-11-30 13:53:00
6:25 AM,60.8,-9999,N/A,29.80,2.0,SSW,15.0,24.2,0.09,Rain,Rain,200,2012-11-30 14:25:00
6:33 AM,59.0,57.2,94,29.79,1.8,SSW,10.4,-,0.14,Rain,Heavy Rain,210,2012-11-30 14:33:00
6:37 AM,59.0,57.2,94,29.79,1.8,SSW,12.7,-,0.16,Rain,Heavy Rain,210,2012-11-30 14:37:00
6:42 AM,59.0,57.2,94,29.79,2.0,SSW,8.1,-,0.19,Rain,Heavy Rain,200,2012-11-30 14:42:00
6:53 AM,59.0,57.0,93,29.80,8.0,South,21.9,28.8,0.19,Rain,Light Rain,180,2012-11-30 14:53:00
7:19 AM,59.0,57.2,94,29.77,6.0,SSE,27.6,38.0,0.01,Rain,Light Rain,160,2012-11-30 15:19:00
7:26 AM,59.0,57.2,94,29.77,4.0,SSE,20.7,38.0,0.02,Rain,Rain,160,2012-11-30 15:26:00
7:33 AM,59.0,57.2,94,29.79,5.0,SSE,18.4,28.8,0.02,Rain,Light Rain,160,2012-11-30 15:33:00
7:49 AM,59.0,57.2,94,29.79,10.0,South,23.0,33.4,0.03,,Overcast,180,2012-11-30 15:49:00
7:53 AM,59.0,57.0,93,29.80,8.0,South,25.3,33.4,0.03,Rain,Light Rain,170,2012-11-30 15:53:00
8:23 AM,59.0,-9999,N/A,29.81,10.0,South,27.6,38.0,0.00,Rain,Light Rain,170,2012-11-30 16:23:00
8:53 AM,59.0,-9999,N/A,29.84,6.0,South,23.0,29.9,0.00,Rain,Light Rain,170,2012-11-30 16:53:00
9:06 AM,59.0,-9999,N/A,29.82,3.0,South,21.9,31.1,0.03,Rain,Rain,170,2012-11-30 17:06:00
9:48 AM,59.0,-9999,N/A,29.83,10.0,South,18.4,27.6,0.06,,Overcast,180,2012-11-30 17:48:00
9:53 AM,59.0,-9999,N/A,29.85,10.0,South,20.7,26.5,0.06,,Overcast,170,2012-11-30 17:53:00
10:50 AM,59.0,57.2,94,29.84,4.0,South,19.6,31.1,0.03,Rain,Rain,170,2012-11-30 18:50:00
10:53 AM,59.0,57.0,93,29.86,4.0,South,18.4,31.1,0.04,Rain,Light Rain,170,2012-11-30 18:53:00
11:31 AM,59.0,57.2,94,29.85,5.0,South,19.6,24.2,0.05,Rain,Rain,180,2012-11-30 19:31:00
11:53 AM,59.0,57.0,93,29.86,2.0,South,18.4,-,0.13,Rain,Heavy Rain,180,2012-11-30 19:53:00
12:09 PM,59.0,57.2,94,29.85,6.0,South,15.0,23.0,0.04,Rain,Light Rain,190,2012-11-30 20:09:00
12:53 PM,60.1,57.9,93,29.86,4.0,South,16.1,-,0.08,Rain,Light Rain,180,2012-11-30 20:53:00
1:12 PM,60.8,57.2,88,29.85,2.0,South,15.0,24.2,0.06,Rain,Rain,180,2012-11-30 21:12:00
1:18 PM,60.8,57.2,88,29.85,1.2,South,16.1,-,0.12,Rain,Heavy Rain,170,2012-11-30 21:18:00
1:27 PM,60.8,57.2,88,29.84,1.5,SSE,11.5,-,0.14,Rain,Light Rain,160,2012-11-30 21:27:00
1:30 PM,60.8,57.2,88,29.84,2.0,SSE,11.5,-,0.14,Rain,Light Rain,160,2012-11-30 21:30:00
1:39 PM,60.8,59.0,94,29.83,5.0,SSE,13.8,-,0.14,Rain,Light Rain,150,2012-11-30 21:39:00
1:53 PM,61.0,59.0,93,29.86,10.0,South,19.6,25.3,0.14,,Overcast,170,2012-11-30 21:53:00
2:18 PM,62.6,59.0,88,29.86,10.0,SSW,15.0,26.5,N/A,,Mostly Cloudy,200,2012-11-30 22:18:00
2:42 PM,60.8,57.2,88,29.86,10.0,South,13.8,24.2,N/A,,Scattered Clouds,180,2012-11-30 22:42:00
2:53 PM,62.1,57.9,86,29.87,10.0,South,13.8,-,N/A,,Mostly Cloudy,180,2012-11-30 22:53:00
3:53 PM,61.0,55.9,83,29.90,10.0,South,16.1,-,N/A,,Overcast,180,2012-11-30 23:53:00
4:53 PM,59.0,55.0,87,29.92,10.0,South,15.0,-,N/A,,Mostly Cloudy,170,2012-12-01 00:53:00
5:53 PM,59.0,55.0,87,29.94,10.0,SSE,12.7,-,N/A,,Overcast,160,2012-12-01 01:53:00
7:53 PM,57.9,55.9,93,29.96,10.0,South,16.1,-,0.00,,Overcast,180,2012-12-01 03:53:00
8:39 PM,57.2,57.2,100,29.95,10.0,SSE,16.1,-,N/A,,Mostly Cloudy,160,2012-12-01 04:39:00
8:53 PM,59.0,57.0,93,29.97,10.0,South,12.7,-,N/A,,Overcast,170,2012-12-01 04:53:00
9:07 PM,59.0,57.2,94,29.96,10.0,SSE,16.1,-,N/A,,Overcast,160,2012-12-01 05:07:00
9:38 PM,59.0,55.4,88,29.96,10.0,South,18.4,27.6,N/A,,Overcast,170,2012-12-01 05:38:00
9:53 PM,57.9,55.9,93,29.99,10.0,South,19.6,29.9,N/A,,Overcast,170,2012-12-01 05:53:00
10:04 PM,57.2,55.4,94,29.98,10.0,South,20.7,28.8,N/A,,Overcast,170,2012-12-01 06:04:00
10:22 PM,57.2,55.4,94,29.98,10.0,South,18.4,25.3,N/A,,Scattered Clouds,180,2012-12-01 06:22:00
10:53 PM,57.9,55.0,90,30.00,10.0,South,16.1,-,N/A,,Mostly Cloudy,170,2012-12-01 06:53:00
11:53 PM,57.9,55.0,90,29.99,10.0,SSE,11.5,-,0.00,,Mostly Cloudy,160,2012-12-01 07:53:00